TimeEDT,TemperatureF,Dew PointF,Humidity,Sea Level PressureIn,VisibilityMPH,Wind Direction,Wind SpeedMPH,Gust SpeedMPH,PrecipitationIn,Events,Conditions,WindDirDegrees,DateUTC
12:53 AM,55.9,53.1,90,30.03,7.0,Calm,Calm,-,N/A,,Clear,0,2013-10-01 04:53:00
1:53 AM,55.0,52.0,89,30.04,6.0,Calm,Calm,-,N/A,,Clear,0,2013-10-01 05:53:00
2:53 AM,54.0,52.0,93,30.04,5.0,Calm,Calm,-,N/A,,Clear,0,2013-10-01 06:53:00
3:47 AM,53.6,51.8,94,30.04,1.8,Calm,Calm,-,N/A,,Clear,0,2013-10-01 07:47:00
3:53 AM,53.1,51.1,93,30.04,0.8,Calm,Calm,-,N/A,,Partly Cloudy,0,2013-10-01 07:53:00
3:59 AM,53.6,51.8,94,30.04,1.2,SE,3.5,-,N/A,,Scattered Clouds,130,2013-10-01 07:59:00
4:10 AM,53.6,51.8,94,30.04,3.0,Calm,Calm,-,N/A,,Mostly Cloudy,0,2013-10-01 08:10:00
4:33 AM,53.6,51.8,94,30.04,1.8,SE,3.5,-,N/A,,Scattered Clouds,140,2013-10-01 08:33:00
4:42 AM,53.6,51.8,94,30.04,2.5,Calm,Calm,-,N/A,,Clear,0,2013-10-01 08:42:00
4:53 AM,54.0,51.1,90,30.04,4.0,Calm,Calm,-,N/A,,Clear,0,2013-10-01 08:53:00
5:08 AM,53.6,51.8,94,30.05,1.5,Calm,Calm,-,N/A,,Partly Cloudy,0,2013-10-01 09:08:00
5:18 AM,51.8,50.0,94,30.05,2.0,Calm,Calm,-,N/A,,Partly Cloudy,0,2013-10-01 09:18:00
5:27 AM,51.8,50.0,94,30.05,1.0,Calm,Calm,-,N/A,,Mist,0,2013-10-01 09:27:00
5:34 AM,51.8,51.8,100,30.06,0.8,Calm,Calm,-,N/A,,Mostly Cloudy,0,2013-10-01 09:34:00
5:36 AM,53.6,51.8,94,30.06,1.2,Calm,Calm,-,N/A,,Mostly Cloudy,0,2013-10-01 09:36:00
5:38 AM,53.6,51.8,94,30.06,2.5,ESE,3.5,-,N/A,,Mostly Cloudy,120,2013-10-01 09:38:00
5:45 AM,53.6,51.8,94,30.06,3.0,Calm,Calm,-,N/A,,Overcast,0,2013-10-01 09:45:00
5:49 AM,53.6,51.8,94,30.06,1.5,Calm,Calm,-,N/A,,Overcast,0,2013-10-01 09:49:00
5:53 AM,54.0,52.0,93,30.06,1.0,Calm,Calm,-,N/A,,Overcast,0,2013-10-01 09:53:00
6:00 AM,53.6,51.8,94,30.06,0.8,Calm,Calm,-,N/A,,Overcast,0,2013-10-01 10:00:00
6:18 AM,53.6,51.8,94,30.07,1.0,Calm,Calm,-,N/A,,Overcast,0,2013-10-01 10:18:00
6:20 AM,53.6,51.8,94,30.07,1.2,Calm,Calm,-,N/A,,Overcast,0,2013-10-01 10:20:00
6:51 AM,55.4,53.6,94,30.08,2.0,Calm,Calm,-,N/A,,Overcast,0,2013-10-01 10:51:00
6:53 AM,55.0,53.1,93,30.08,2.0,Calm,Calm,-,N/A,,Overcast,0,2013-10-01 10:53:00
7:38 AM,55.4,53.6,94,30.09,1.2,Calm,Calm,-,N/A,,Mostly Cloudy,0,2013-10-01 11:38:00
7:51 AM,55.4,53.6,94,30.09,1.0,Calm,Calm,-,N/A,,Partly Cloudy,0,2013-10-01 11:51:00
7:53 AM,55.0,53.1,93,30.09,1.2,Calm,Calm,-,N/A,,Partly Cloudy,0,2013-10-01 11:53:00
8:07 AM,55.4,53.6,94,30.09,1.0,Calm,Calm,-,N/A,,Scattered Clouds,0,2013-10-01 12:07:00
8:40 AM,57.2,55.4,94,30.10,1.2,Calm,Calm,-,N/A,,Mostly Cloudy,0,2013-10-01 12:40:00
8:53 AM,59.0,55.9,90,30.11,1.2,Calm,Calm,-,N/A,,Overcast,0,2013-10-01 12:53:00
9:25 AM,60.8,57.2,88,30.11,2.5,Calm,Calm,-,N/A,,Overcast,0,2013-10-01 13:25:00
9:35 AM,60.8,57.2,88,30.11,4.0,Calm,Calm,-,N/A,,Overcast,0,2013-10-01 13:35:00
9:53 AM,61.0,57.9,90,30.11,5.0,Calm,Calm,-,N/A,,Overcast,0,2013-10-01 13:53:00
10:04 AM,62.6,57.2,82,30.12,5.0,Calm,Calm,-,N/A,,Overcast,0,2013-10-01 14:04:00
10:53 AM,64.9,59.0,81,30.11,10.0,Calm,Calm,-,N/A,,Scattered Clouds,0,2013-10-01 14:53:00
11:53 AM,71.1,60.1,68,30.09,10.0,Variable,3.5,-,N/A,,Overcast,0,2013-10-01 15:53:00
12:21 PM,71.6,60.8,69,30.09,10.0,NW,3.5,-,N/A,,Overcast,320,2013-10-01 16:21:00
12:35 PM,71.6,60.8,69,30.09,10.0,Calm,Calm,-,N/A,,Mostly Cloudy,0,2013-10-01 16:35:00
12:53 PM,73.9,66.0,76,30.08,-9999.0,West,3.5,-,0.01,,Mostly Cloudy,280,2013-10-01 16:53:00
1:53 PM,77.0,57.9,52,30.06,10.0,Variable,5.8,-,N/A,,Mostly Cloudy,0,2013-10-01 17:53:00
2:53 PM,75.9,57.0,52,30.04,10.0,SW,5.8,-,N/A,,Scattered Clouds,230,2013-10-01 18:53:00
3:53 PM,78.1,57.0,48,30.03,10.0,WSW,6.9,-,N/A,,Mostly Cloudy,250,2013-10-01 19:53:00
4:53 PM,77.0,55.9,48,30.02,10.0,SSW,6.9,-,N/A,,Scattered Clouds,200,2013-10-01 20:53:00
5:53 PM,75.9,55.9,50,30.01,10.0,Variable,3.5,-,N/A,,Clear,0,2013-10-01 21:53:00
6:53 PM,70.0,57.9,65,30.02,10.0,Calm,Calm,-,N/A,,Clear,0,2013-10-01 22:53:00
7:53 PM,64.9,57.9,78,30.03,10.0,Calm,Calm,-,N/A,,Clear,0,2013-10-01 23:53:00
8:53 PM,63.0,57.9,84,30.03,10.0,Calm,Calm,-,N/A,,Clear,0,2013-10-02 00:53:00
9:53 PM,59.0,55.9,90,30.04,10.0,Calm,Calm,-,N/A,,Clear,0,2013-10-02 01:53:00
10:53 PM,57.9,55.0,90,30.05,10.0,Calm,Calm,-,N/A,,Clear,0,2013-10-02 02:53:00
11:53 PM,57.0,55.0,93,30.05,10.0,Calm,Calm,-,N/A,,Clear,0,2013-10-02 03:53:00